This is the latest recevied weather packets stored in our database for station/object IU5JAE-13. If no packets are shown the sender has not sent any weather packets the latest 10 day(s).
| Time | Temp. | Humidity | Pressure | Rain* | Wind** | Luminosity | Snow |
|---|---|---|---|---|---|---|---|
| 1777948530 | 11.11° C | 94% | 1013.9 hPa | 5.59 mm | - | 0 W/m² | - |
| 1777947927 | 11.67° C | 94% | 1014.2 hPa | 4.06 mm | - | 0 W/m² | - |
| 1777947325 | 11.67° C | 93% | 1014.2 hPa | 3.3 mm | - | 0 W/m² | - |
| 1777946722 | 11.67° C | 93% | 1014.3 hPa | 3.05 mm | - | 0 W/m² | - |
| 1777946120 | 11.67° C | 93% | 1014.4 hPa | 3.05 mm | - | 0 W/m² | - |
| 1777945518 | 11.67° C | 92% | 1014.4 hPa | 3.05 mm | - | 0 W/m² | - |
| 1777944915 | 11.67° C | 91% | 1014.6 hPa | 2.79 mm | - | 0 W/m² | - |
| 1777944333 | 11.67° C | 91% | 1014.8 hPa | 2.54 mm | - | 0 W/m² | - |
| 1777943731 | 11.67° C | 89% | 1014.8 hPa | 2.29 mm | - | 0 W/m² | - |
| 1777943128 | 12.22° C | 87% | 1014.9 hPa | 1.78 mm | - | 0 W/m² | - |
| 1777942526 | 12.78° C | 83% | 1015.1 hPa | 1.02 mm | - | 0 W/m² | - |
| 1777941923 | 13.33° C | 78% | 1015.1 hPa | 0.51 mm | - | 0 W/m² | - |
| 1777941321 | 13.33° C | 74% | 1015.3 hPa | 0 mm | - | 0 W/m² | - |
| 1777940718 | 13.33° C | 74% | 1015.4 hPa | 0 mm | - | 0 W/m² | - |
| 1777940116 | 13.33° C | 74% | 1015.7 hPa | 0 mm | - | 0 W/m² | - |
| 1777939534 | 13.33° C | 75% | 1015.7 hPa | 0 mm | - | 0 W/m² | - |
| 1777938931 | 13.33° C | 74% | 1015.8 hPa | 0 mm | - | 0 W/m² | - |
| 1777938329 | 13.33° C | 74% | 1015.9 hPa | 0 mm | - | 0 W/m² | - |
| 1777937726 | 13.33° C | 74% | 1016.1 hPa | 0 mm | - | 0 W/m² | - |
| 1777937125 | 13.33° C | 73% | 1016.3 hPa | 0 mm | - | 0 W/m² | - |
| 1777936522 | 13.33° C | 73% | 1016.3 hPa | 0 mm | - | 0 W/m² | - |
| 1777935919 | 13.33° C | 73% | 1016.6 hPa | 0 mm | - | 0 W/m² | - |
| 1777935317 | 13.33° C | 73% | 1016.7 hPa | 0 mm | - | 0 W/m² | - |
| 1777934734 | 13.33° C | 73% | 1016.8 hPa | 0 mm | - | 0 W/m² | - |
| 1777934132 | 13.33° C | 72% | 1017 hPa | 0 mm | - | 0 W/m² | - |
* Rain latest hour (hover to see other rain measurements)
** Current wind speed in m/s (hover to see current wind gust speed)